Temperature
14 14 14 13 13 13 12 12 12 12 12 12 11 11 11 11 11 11 11 11 11 11 12 12 12 12 12 12 12 13 13 13 13 14 14 14 15 15 15 16 16 16 16
14 14 14 14 13 13 13 13 12 12 12 12 12 12 11 11 11 11 11 11 11 11 11 12 12 12 12 12 12 12 13 13 13 13 14 14 14 15 15 15 15 16 16
15 14 14 14 14 13 13 13 13 13 12 12 12 12 12 12 11 11 11 11 11 11 11 12 12 12 12 12 12 12 12 12 12 13 13 14 14 14 14 15 15 15 15
15 15 14 14 14 14 14 13 13 13 13 12 12 12 12 12 12 11 11 11 11 11 11 11 11 11 12 12 12 12 12 12 12 12 12 13 13 14 14 14 15 15 15
15 15 15 14 14 14 14 13 13 13 13 13 12 12 12 12 12 12 12 11 11 11 11 11 11 11 11 12 12 12 12 12 12 12 12 12 13 13 13 14 14 14 15
16 15 15 15 14 14 14 14 13 13 13 13 13 12 12 12 12 12 12 12 11 11 11 11 11 11 11 11 11 11 12 12 12 12 12 12 12 13 13 13 13 13 14
16 16 15 15 15 14 14 14 14 13 13 13 13 13 12 12 12 12 12 12 12 12 11 11 11 11 11 11 11 11 11 11 12 12 12 12 12 12 12 13 13 13 13
16 16 15 15 15 14 14 14 14 14 13 13 13 13 13 12 12 12 12 12 12 12 12 11 11 11 11 11 11 12 12 12 12 12 12 12 12 12 12 12 12 12 13
16 16 15 15 15 14 14 14 14 13 13 13 13 13 13 13 12 12 12 12 12 12 12 11 11 12 11 11 11 12 12 12 12 11 12 12 12 12 12 12 12 12 12
16 16 15 15 14 14 14 13 13 13 13 13 13 13 13 13 12 12 12 12 12 12 12 12 11 11 11 11 11 11 12 12 12 12 12 12 12 12 12 12 12 12 12
16 15 15 14 14 14 13 13 13 13 13 13 13 13 12 12 12 12 12 12 12 12 12 12 11 11 11 11 11 11 11 11 11 12 12 12 12 12 12 12 12 11 11
15 15 14 14 13 13 13 13 12 12 12 12 12 12 12 12 12 12 12 12 12 12 12 11 11 11 11 11 11 11 11 11 11 11 11 12 12 12 12 12 11 11 11
15 14 14 13 13 13 12 12 12 12 12 12 12 12 12 12 12 12 12 11 11 11 11 11 11 11 11 11 11 11 11 11 11 11 11 11 11 11 11 11 11 11 11
14 14 13 13 12 12 11 11 11 11 11 11 11 11 11 11 11 11 11 11 11 11 11 11 11 11 11 11 11 11 11 10 10 10 11 11 11 11 11 11 11 11 11
14 13 12 12 11 11 11 10 10 10 10 10 10 10 10 10 10 10 10 10 10 11 10 11 11 11 11 11 11 11 10 10 10 10 10 10 11 11 11 11 11 11 11
13 12 12 11 10 10 10 9 9 9 9 9 9 9 9 9 9 9 10 10 10 10 10 10 10 10 10 10 10 10 10 10 10 10 10 10 10 10 10 10 10 10 10
12 12 11 10 10 9 9 9 8 8 8 8 8 8 8 8 9 9 9 9 9 9 9 9 9 8 8 8 9 9 9 9 9 9 9 9 9 9 10 10 10 10 10
11 11 10 10 9 8 8 8 8 8 8 8 8 8 8 8 8 8 8 8 8 8 8 8 8 7 7 7 7 8 8 8 8 8 8 8 8 9 9 9 9 9 10
11 10 9 9 8 8 7 7 7 7 7 7 7 7 7 7 7 7 7 7 7 7 7 6 6 6 6 6 6 6 7 7 7 7 7 7 8 8 8 8 8 9 9
9 9 8 8 8 7 7 7 7 7 7 6 6 6 6 6 6 6 6 6 6 6 5 5 5 5 5 5 5 5 6 6 6 6 6 6 6 6 7 7 7 8 8
9 8 8 7 7 7 7 6 6 6 6 6 5 5 5 5 5 5 5 5 5 5 4 4 4 4 4 4 4 4 5 5 5 5 5 5 5 5 6 6 6 7 7
8 8 7 7 7 6 6 6 6 5 5 5 5 5 4 4 4 4 4 4 4 4 4 4 4 4 4 4 3 3 4 4 4 4 4 4 4 4 4 5 5 5 6
7 7 7 6 6 6 5 5 5 5 5 4 4 4 4 4 4 4 4 3 3 3 3 3 3 3 3 3 3 3 2 2 2 2 2 3 3 3 3 4 4 4 5
7 6 6 6 5 5 5 5 5 4 4 4 4 3 3 3 3 3 3 3 3 3 3 3 3 3 2 2 2 2 2 2 2 1 2 2 2 2 2 3 3 3 4
6 6 6 5 5 5 5 4 4 4 4 3 3 3 3 3 3 3 3 3 2 2 2 2 2 2 2 2 2 1 1 1 1 1 1 1 1 1 1 2 2 2 3
6 5 5 5 5 4 4 4 4 4 3 3 3 3 3 2 2 2 2 2 2 2 2 2 1 1 1 1 1 1 1 1 1 0 0 0 0 1 1 1 1 1 2
Wind_Speed
5 5 4 4 3 3 3 4 4 4 4 4 4 4 4 4 4 3 3 3 3 3 2 2 3 3 3 2 2 3 4 4 5 3 2 2 3 4 3 5 7 8 9
5 4 5 4 3 3 4 4 4 4 4 4 4 4 4 4 4 3 4 3 3 3 4 3 4 3 3 3 2 3 3 4 4 5 3 3 4 4 4 4 4 6 7
4 5 5 4 4 5 5 4 4 4 4 4 3 4 4 4 4 4 3 3 3 4 4 4 4 3 4 3 3 3 3 3 3 4 4 3 3 2 2 3 4 3 5
5 5 5 5 5 5 5 4 4 4 4 4 4 4 5 5 4 4 4 3 4 4 4 4 4 4 5 4 4 4 3 3 3 4 4 3 3 2 2 3 3 3 4
4 5 6 5 5 5 5 5 4 4 4 4 4 5 5 4 4 4 3 3 4 4 4 4 4 5 6 5 4 3 4 3 3 4 4 3 3 3 3 3 4 3 4
4 5 4 4 4 4 5 5 5 5 4 4 4 5 5 5 7 7 4 3 3 3 4 4 5 5 5 6 6 5 4 4 5 4 4 5 5 4 4 4 4 3 3
3 3 3 3 4 4 4 4 5 5 4 5 5 5 6 7 9 8 6 3 3 3 4 4 4 4 5 4 5 5 5 6 7 5 6 6 5 5 4 5 6 5 5
2 2 3 3 4 4 4 5 5 4 4 4 5 5 5 7 9 8 7 3 3 4 4 4 4 5 4 4 4 4 4 4 5 5 6 6 6 5 6 6 5 4 3
1 3 3 2 3 3 4 5 4 3 4 4 4 4 5 7 9 8 6 2 3 5 4 4 4 5 7 6 4 4 5 5 5 7 7 8 9 9 6 4 4 4 5
2 2 2 2 2 3 4 4 3 3 4 4 4 4 4 5 8 8 6 1 3 4 5 4 5 6 8 7 4 4 6 6 5 5 5 6 6 7 8 7 6 6 4
1 0 1 1 1 2 3 2 3 3 3 3 4 4 4 5 7 9 7 1 2 3 4 5 5 8 9 8 6 5 7 7 5 5 5 5 4 4 5 5 6 7 7
2 3 3 3 2 2 2 3 3 2 2 3 3 5 4 5 6 8 9 5 3 2 4 4 5 9 10 9 6 6 8 6 4 4 4 5 4 4 4 5 6 7 7
4 3 3 3 4 3 3 3 3 3 2 2 3 4 5 5 6 9 9 9 7 3 3 5 7 8 8 6 7 7 6 3 3 3 4 5 4 5 4 4 5 6 7
5 3 3 4 4 4 4 3 3 3 3 3 3 3 4 5 5 6 5 6 7 5 4 6 7 8 6 6 6 5 4 3 3 4 5 5 4 4 4 4 4 5 5
5 4 3 3 3 4 4 3 3 3 3 2 2 2 3 4 6 8 6 5 5 4 4 4 6 6 7 7 6 6 5 5 4 4 4 5 5 5 5 4 4 4 5
5 4 3 3 3 3 3 4 6 5 9 9 7 5 3 5 8 10 11 11 11 10 6 5 6 6 6 6 7 6 6 6 6 6 5 5 5 6 6 5 4 5 6
6 4 3 3 2 2 2 3 3 5 8 10 10 9 8 8 9 9 9 10 12 11 7 5 5 6 6 6 6 6 6 6 6 6 6 7 6 6 6 6 5 6 6
6 5 5 3 2 2 2 2 2 2 3 4 6 9 10 10 10 9 8 7 7 8 5 5 5 5 5 6 6 6 6 7 7 6 7 7 7 7 7 7 6 7 7
6 4 3 3 2 2 2 2 3 3 2 2 3 5 8 8 9 10 8 5 4 4 4 4 4 4 4 5 5 5 6 6 7 7 7 7 7 8 8 8 8 9 8
5 8 6 4 3 3 2 3 2 2 2 2 3 3 3 4 4 5 4 3 3 3 3 3 4 4 4 4 5 5 5 5 6 6 6 7 7 7 8 9 9 9 8
5 5 8 5 3 3 2 2 2 1 1 1 2 2 4 2 2 3 3 3 3 3 4 4 4 4 4 4 5 5 6 6 6 6 6 7 7 8 8 8 9 9 9
5 4 4 4 3 2 2 1 1 1 1 1 2 3 5 3 2 2 3 3 3 3 4 4 4 4 5 5 5 6 6 7 7 7 7 8 8 8 9 9 9 9 9
6 5 4 3 3 3 2 1 1 1 0 1 2 2 2 2 3 3 4 4 4 4 4 4 5 5 5 5 5 6 7 7 8 8 9 9 9 9 9 10 11 12 11
6 6 5 4 3 3 2 1 1 1 1 1 2 2 3 3 4 4 5 5 5 5 5 5 6 8 9 8 8 9 9 10 10 9 10 11 11 10 10 10 11 12 12
6 5 5 4 4 3 2 2 2 2 2 2 2 3 3 4 4 5 5 5 6 6 7 7 7 8 10 11 11 12 14 17 17 14 10 10 11 12 12 12 12 12 12
6 5 5 4 4 3 3 3 3 3 3 3 3 4 4 5 5 6 6 6 6 7 8 8 9 11 13 13 15 17 19 19 19 19 14 10 11 12 12 11 14 13 13
Wind_Direction
247 250 260 269 273 275 278 287 295 302 314 322 326 332 335 334 335 338 323 322 325 316 311 292 286 279 270 263 241 225 218 212 238 260 248 252 239 242 238 226 226 224 227
242 246 255 264 271 275 279 286 290 295 303 307 315 320 324 325 326 322 317 320 313 308 304 297 291 290 282 274 253 240 231 221 225 249 250 244 244 239 235 233 229 228 226
236 244 257 262 262 266 274 285 290 291 297 306 310 308 310 312 312 307 297 299 294 288 286 284 285 286 279 272 258 244 237 233 224 237 250 244 250 246 245 246 238 234 233
228 236 250 255 255 262 271 278 281 283 288 296 299 297 296 298 297 298 295 292 293 288 281 277 279 271 266 266 260 247 235 235 235 240 247 247 248 241 228 239 249 235 237
219 236 249 258 261 265 270 273 276 279 281 284 293 301 302 297 290 294 289 290 294 300 298 286 281 280 277 269 257 240 223 227 234 240 244 245 242 228 229 225 241 249 244
212 240 256 265 269 270 272 274 278 281 283 285 287 292 300 297 308 312 301 283 291 294 301 302 296 294 306 310 301 279 245 229 230 234 241 244 245 236 231 230 235 239 251
218 249 261 263 271 275 281 285 281 280 280 283 283 285 288 292 304 313 312 291 284 287 286 297 309 310 318 311 310 304 288 272 251 238 242 247 245 234 227 237 234 232 237
220 258 272 271 277 288 294 289 286 281 277 278 281 284 286 294 309 314 313 303 288 290 281 274 281 297 303 301 300 302 291 283 269 252 241 247 248 244 234 237 244 244 253
235 270 277 268 274 289 292 289 287 288 289 282 281 289 290 299 316 321 322 295 297 300 297 289 287 289 301 313 302 294 294 291 278 260 257 257 259 257 243 234 233 237 252
241 268 285 273 265 279 284 288 288 282 287 302 310 307 300 302 323 332 333 271 295 304 308 303 300 300 305 312 293 281 287 289 294 297 289 282 267 259 247 231 228 235 243
227 23 10 344 298 292 305 303 300 304 316 325 327 330 332 328 333 343 344 308 269 293 303 307 307 316 314 311 299 269 274 288 288 283 286 284 276 262 252 237 229 229 234
102 74 38 18 10 9 350 340 337 337 345 342 346 345 347 344 346 348 353 348 323 270 286 297 306 319 322 318 311 295 295 298 288 287 287 285 279 272 264 253 242 236 235
98 74 42 31 23 15 20 12 12 17 19 0 5 356 347 351 353 359 1 -0 356 336 299 314 328 337 340 339 340 337 331 313 295 290 289 288 276 272 275 272 257 245 242
103 80 56 48 32 24 30 36 43 32 27 21 16 358 346 352 357 358 358 358 359 1 356 359 5 8 7 360 358 357 350 328 314 296 291 288 287 282 276 270 266 261 255
106 89 67 55 46 35 37 43 47 43 65 66 27 13 12 4 1 13 23 14 7 7 16 25 24 18 16 11 5 358 351 348 336 319 306 303 300 292 284 275 262 260 255
116 101 84 69 55 51 49 37 33 43 49 54 56 58 35 32 26 36 38 36 34 38 49 37 25 18 13 5 359 355 354 351 342 333 323 313 307 306 301 288 268 264 264
129 126 108 91 79 67 60 63 37 17 29 37 36 38 39 31 33 36 40 42 40 43 50 35 21 10 3 358 355 353 348 342 340 339 337 332 323 313 307 304 294 280 271
128 127 122 109 98 86 79 73 71 59 28 3 6 20 28 33 34 33 35 45 39 37 35 26 12 2 357 355 353 350 345 344 346 343 341 339 336 327 319 312 303 293 285
130 130 124 117 105 96 88 79 71 64 53 21 7 8 15 24 32 32 37 49 41 24 13 4 355 350 346 345 344 343 342 341 340 342 341 338 335 331 326 319 311 303 294
140 140 133 124 109 97 88 86 77 68 52 35 20 360 354 20 29 18 23 25 19 1 349 343 337 334 331 331 329 329 332 332 334 334 334 334 332 327 322 320 317 311 303
136 139 133 119 117 118 113 108 103 91 66 33 353 349 17 33 16 1 358 356 348 337 332 328 324 324 321 318 318 320 321 321 321 323 324 323 324 324 319 314 313 311 308
139 137 136 136 134 131 133 132 124 112 58 10 336 346 6 15 346 334 326 323 319 315 313 313 313 311 311 311 312 315 315 314 314 315 315 314 314 313 314 314 311 308 307
143 142 140 140 141 139 127 130 138 152 280 308 312 322 331 326 316 309 307 306 307 307 304 302 302 302 299 296 294 294 299 302 301 302 305 306 306 305 305 306 308 308 304
150 152 153 154 153 155 163 180 204 235 260 280 292 294 296 297 298 298 298 298 298 297 295 293 290 292 294 295 296 292 288 289 293 293 293 294 296 296 296 295 296 299 301
155 158 161 167 170 176 185 202 225 250 265 270 277 284 290 294 294 295 294 293 295 295 296 295 292 292 291 291 292 293 292 292 292 292 289 287 286 286 287 288 288 292 292
163 166 169 173 179 187 195 210 230 245 256 265 272 278 284 289 291 293 295 295 296 296 296 295 292 292 293 294 292 292 293 293 292 291 289 284 282 281 281 281 283 283 286
Height
1507 1506 1504 1503 1502 1500 1498 1497 1495 1493 1491 1489 1488 1486 1484 1483 1481 1480 1479 1478 1477 1477 1476 1476 1476 1476 1476 1476 1477 1477 1478 1479 1479 1480 1481 1483 1484 1486 1488 1489 1491 1493 1495
1505 1504 1503 1502 1501 1499 1498 1496 1494 1493 1491 1489 1487 1485 1484 1482 1481 1479 1478 1477 1476 1475 1474 1474 1474 1473 1473 1473 1474 1474 1475 1476 1477 1477 1478 1479 1480 1482 1483 1484 1486 1488 1490
1504 1503 1502 1501 1500 1498 1497 1495 1494 1492 1490 1489 1487 1485 1483 1482 1480 1478 1477 1475 1474 1473 1472 1472 1471 1471 1471 1471 1471 1471 1472 1472 1473 1474 1474 1475 1476 1477 1478 1479 1481 1482 1484
1502 1501 1500 1499 1498 1497 1496 1494 1493 1491 1489 1488 1486 1484 1483 1481 1479 1477 1476 1474 1473 1472 1471 1470 1469 1469 1469 1468 1468 1468 1469 1469 1470 1470 1470 1471 1472 1473 1474 1475 1476 1477 1479
1500 1499 1499 1498 1497 1496 1494 1493 1492 1490 1488 1487 1485 1484 1482 1480 1478 1476 1475 1473 1472 1470 1469 1468 1467 1467 1466 1466 1466 1466 1466 1466 1466 1467 1467 1467 1468 1469 1470 1471 1471 1473 1474
1498 1497 1497 1496 1495 1494 1493 1491 1490 1489 1487 1485 1484 1482 1481 1479 1477 1475 1474 1472 1470 1469 1468 1466 1466 1465 1464 1464 1463 1463 1463 1463 1463 1463 1463 1463 1464 1465 1466 1467 1467 1468 1468
1495 1495 1494 1494 1493 1492 1490 1489 1488 1486 1485 1484 1482 1481 1479 1478 1476 1474 1472 1471 1469 1468 1466 1465 1464 1463 1462 1461 1461 1460 1460 1460 1460 1460 1459 1459 1460 1461 1462 1462 1463 1463 1463
1493 1493 1492 1491 1490 1489 1488 1486 1485 1484 1482 1481 1480 1479 1477 1476 1475 1473 1471 1469 1468 1466 1465 1463 1462 1461 1460 1459 1458 1457 1457 1457 1456 1456 1456 1456 1456 1457 1457 1458 1458 1458 1459
1490 1490 1489 1488 1487 1486 1485 1484 1482 1481 1480 1479 1477 1476 1475 1474 1472 1471 1469 1468 1466 1465 1464 1462 1461 1459 1458 1457 1456 1455 1454 1454 1453 1453 1452 1452 1452 1452 1453 1453 1453 1454 1453
1488 1487 1486 1485 1484 1483 1482 1480 1479 1478 1477 1476 1474 1473 1472 1471 1470 1469 1467 1466 1464 1463 1462 1461 1459 1457 1456 1454 1453 1452 1450 1450 1449 1449 1448 1448 1448 1448 1448 1448 1448 1449 1449
1485 1484 1483 1482 1481 1480 1479 1477 1476 1475 1474 1473 1472 1471 1469 1468 1467 1466 1465 1464 1462 1461 1460 1458 1457 1455 1453 1452 1450 1449 1448 1447 1446 1445 1444 1444 1444 1443 1443 1443 1443 1444 1444
1482 1481 1480 1479 1478 1477 1476 1475 1473 1472 1471 1470 1469 1468 1467 1466 1465 1464 1463 1461 1460 1459 1457 1456 1454 1453 1451 1449 1448 1446 1445 1444 1443 1442 1441 1440 1440 1439 1439 1438 1438 1438 1438
1479 1478 1478 1477 1476 1474 1473 1472 1471 1470 1469 1468 1467 1466 1465 1464 1463 1461 1460 1459 1458 1456 1455 1453 1452 1450 1448 1446 1445 1443 1442 1441 1440 1439 1438 1437 1436 1435 1434 1433 1433 1433 1432
1476 1476 1475 1474 1473 1472 1471 1470 1468 1467 1466 1465 1464 1463 1463 1461 1460 1459 1458 1456 1455 1454 1452 1451 1449 1448 1446 1444 1443 1441 1440 1439 1437 1436 1435 1434 1432 1431 1430 1429 1428 1428 1427
1473 1473 1472 1472 1471 1470 1469 1468 1466 1465 1465 1464 1463 1462 1461 1459 1458 1457 1456 1454 1452 1451 1450 1448 1447 1445 1444 1442 1441 1439 1438 1436 1435 1433 1432 1430 1429 1427 1426 1425 1424 1423 1422
1471 1470 1470 1470 1469 1468 1467 1466 1465 1465 1464 1463 1462 1461 1460 1459 1457 1456 1454 1453 1451 1449 1448 1446 1444 1443 1441 1439 1438 1436 1435 1433 1432 1430 1428 1427 1425 1423 1422 1421 1420 1419 1417
1468 1468 1468 1467 1467 1467 1466 1465 1465 1464 1463 1462 1461 1460 1459 1458 1456 1455 1453 1451 1450 1448 1446 1444 1443 1441 1439 1438 1436 1434 1433 1431 1429 1427 1425 1423 1421 1420 1418 1416 1415 1414 1413
1465 1466 1466 1466 1465 1465 1465 1464 1464 1463 1463 1461 1460 1459 1458 1457 1455 1453 1452 1450 1448 1446 1445 1443 1442 1440 1438 1436 1434 1432 1430 1428 1426 1424 1422 1420 1418 1416 1414 1412 1411 1409 1408
1463 1463 1464 1464 1464 1464 1464 1463 1463 1462 1461 1460 1459 1458 1457 1455 1454 1452 1450 1448 1446 1445 1443 1442 1440 1438 1436 1434 1432 1430 1428 1425 1423 1420 1418 1416 1414 1412 1410 1408 1407 1405 1403
1460 1461 1462 1462 1462 1462 1462 1462 1461 1461 1460 1459 1458 1457 1455 1454 1452 1450 1449 1447 1445 1443 1441 1440 1438 1436 1434 1431 1429 1427 1424 1422 1419 1417 1414 1412 1410 1408 1406 1404 1402 1400 1398
1458 1459 1460 1460 1461 1461 1461 1461 1460 1459 1458 1457 1456 1455 1454 1452 1450 1449 1447 1445 1443 1441 1439 1437 1435 1432 1430 1428 1425 1423 1420 1418 1415 1413 1410 1408 1406 1403 1401 1399 1397 1395 1393
1456 1457 1458 1459 1459 1459 1459 1459 1459 1458 1457 1456 1455 1453 1452 1450 1448 1447 1445 1443 1440 1438 1436 1433 1431 1429 1426 1423 1421 1418 1415 1413 1410 1408 1405 1403 1400 1398 1396 1394 1391 1389 1387
1453 1455 1456 1456 1457 1457 1458 1457 1457 1456 1455 1454 1453 1451 1450 1448 1446 1444 1441 1439 1437 1434 1432 1429 1426 1424 1421 1418 1416 1413 1410 1407 1405 1402 1400 1397 1395 1392 1390 1388 1385 1383 1381
1451 1452 1453 1454 1455 1455 1455 1455 1455 1454 1453 1451 1450 1448 1447 1445 1442 1440 1438 1435 1432 1430 1427 1424 1421 1418 1415 1412 1409 1407 1404 1401 1399 1396 1393 1390 1388 1385 1383 1381 1379 1377 1375
1448 1450 1451 1452 1452 1453 1453 1452 1452 1451 1450 1448 1447 1445 1443 1441 1438 1436 1433 1430 1427 1424 1421 1418 1414 1411 1408 1405 1402 1399 1396 1394 1391 1388 1385 1382 1380 1377 1375 1373 1371 1369 1367
1446 1447 1448 1449 1450 1450 1450 1449 1449 1448 1446 1445 1443 1441 1439 1436 1434 1431 1428 1424 1421 1417 1414 1411 1407 1404 1400 1397 1393 1390 1387 1384 1382 1379 1376 1373 1370 1368 1366 1364 1362 1361 1359